Location: G�kdere
(37.0328°N, 30.9000°E)
Time: 02:53:34
(UTC+00:00)

Cosmos 1939 Rocket - Pass Details

Date: 03 March 2021
Orbit: 533 x 582 km, 97.4° (Epoch: 22 April)

Event Time Altitude Azimuth Distance (km) Brightness Sun altitude
Rises 16:20:37 0° 184° (S) 2,670 6.4 -6.4°
Reaches altitude 10° 16:22:49 10° 192° (SSW) 1,781 5.6 -6.8°
Maximum altitude 16:26:26 39° 262° (W) 817 4.5 -7.6°
Drops below altitude 10° 16:30:03 10° 332° (NNW) 1,792 5.8 -8.3°
Sets 16:32:17 0° 340° (NNW) 2,689 6.6 -8.7°
